This is the latest recevied weather packets stored in our database for station/object KX4O-13. If no packets are shown the sender has not sent any weather packets the latest 10 day(s).
| Time | Temp. | Humidity | Pressure | Rain* | Wind** | Luminosity | Snow |
|---|---|---|---|---|---|---|---|
| 1778072152 | 15° C | 91% | 1010 hPa | 3.05 mm | - | 19 W/m² | - |
| 1778071852 | 15° C | 91% | 1009.9 hPa | 2.79 mm | - | 16 W/m² | - |
| 1778071551 | 15° C | 90% | 1009.8 hPa | 2.54 mm | - | 23 W/m² | - |
| 1778071251 | 15° C | 90% | 1009.9 hPa | 2.03 mm | - | 18 W/m² | - |
| 1778070952 | 15.56° C | 89% | 1010.3 hPa | 1.78 mm | - | 14 W/m² | - |
| 1778070654 | 15.56° C | 89% | 1009.9 hPa | 1.02 mm | - | 14 W/m² | - |
| 1778070352 | 15.56° C | 89% | 1009.6 hPa | 0.76 mm | - | 19 W/m² | - |
| 1778070052 | 15.56° C | 89% | 1009.5 hPa | 1.02 mm | - | 23 W/m² | - |
| 1778069751 | 15.56° C | 89% | 1009.4 hPa | 0.76 mm | - | 53 W/m² | - |
| 1778069452 | 15.56° C | 88% | 1009.4 hPa | 0.51 mm | - | 49 W/m² | - |
| 1778069152 | 15.56° C | 87% | 1009.5 hPa | 0.51 mm | - | 26 W/m² | - |
| 1778068852 | 15.56° C | 87% | 1009.4 hPa | 0.51 mm | - | 26 W/m² | - |
| 1778068552 | 15.56° C | 87% | 1009.4 hPa | 0.51 mm | - | 37 W/m² | - |
| 1778068254 | 16.11° C | 86% | 1009.6 hPa | 0.51 mm | - | 49 W/m² | - |
| 1778067952 | 16.11° C | 85% | 1009.5 hPa | 0.51 mm | - | 65 W/m² | - |
| 1778067652 | 16.11° C | 84% | 1009.6 hPa | 0.51 mm | - | 35 W/m² | - |
| 1778067352 | 16.11° C | 82% | 1009.7 hPa | 0.25 mm | - | 16 W/m² | - |
| 1778067052 | 16.11° C | 80% | 1009.7 hPa | 0.25 mm | - | 12 W/m² | - |
| 1778066752 | 16.67° C | 79% | 1009.6 hPa | 0.25 mm | - | 11 W/m² | - |
| 1778066452 | 17.22° C | 77% | 1009.6 hPa | 0 mm | - | 11 W/m² | - |
| 1778066152 | 17.22° C | 75% | 1009.6 hPa | 0 mm | - | 11 W/m² | - |
| 1778065854 | 17.78° C | 74% | 1009.4 hPa | 0 mm | - | 14 W/m² | - |
| 1778065552 | 17.78° C | 73% | 1009.4 hPa | 0 mm | - | 14 W/m² | - |
| 1778065252 | 17.78° C | 73% | 1009.3 hPa | 0 mm | - | 12 W/m² | - |
| 1778064952 | 17.78° C | 73% | 1009.3 hPa | 0 mm | - | 11 W/m² | - |
* Rain latest hour (hover to see other rain measurements)
** Current wind speed in m/s (hover to see current wind gust speed)